Location: Bratislava
(48.1500°N, 17.1170°E)
Time: 04:33:19
(UTC+02:00)

Envisat - Visible Passes

Search period start: 28 July 2017 00:00
Search period end: 07 August 2017 00:00
Orbit: 764 x 766 km, 98.2° (Epoch: 26 July)

Date Brightness Start Highest point End Pass type
(mag) Time Alt. Az. Time Alt. Az. Time Alt. Az.
28 Jul 3.9 21:06:10 10° S 21:11:06 51° W 21:16:04 10° NNW visible
29 Jul 5.6 22:11:04 10° WSW 22:13:58 15° W 22:16:54 10° NW visible
30 Jul 4.8 21:32:24 10° SSW 21:36:52 31° W 21:41:22 10° NNW visible
01 Aug 5.5 21:59:13 10° SW 22:02:45 19° W 22:06:18 10° NW visible
02 Aug 4.4 21:21:00 10° SSW 21:25:42 38° W 21:30:26 10° NNW visible
03 Aug 5.8 22:27:26 10° W 22:28:44 11° W 22:30:02 10° WNW visible
04 Aug 5.2 21:47:32 10° SW 21:51:31 23° W 21:55:33 10° NW visible
05 Aug 4.0 21:09:40 10° S 21:14:33 46° W 21:19:28 10° NNW visible
06 Aug 5.6 22:14:54 10° WSW 22:17:28 14° W 22:20:03 10° NW visible
